GW1769 Weather Reports


time (UTC)temp
F
wind
direction
speed
knots
gust
knots
rain 1hr
in
rain 24hr
in
rain mn
in
humidity
%
barometer
mb
20260831203912 70 179 0.0 0.0 0.00 0.00 0.00 90 1015.7
20260831203406 70 180 0.0 0.0 0.00 0.00 0.00 92 1015.5
20260831202904 69 179 0.0 0.0 0.00 0.00 0.00 91 1015.6
20260831202359 69 178 0.0 0.0 0.00 0.00 0.00 92 1015.5
20260831201854 69 180 0.0 0.0 0.00 0.00 0.00 92 1015.4
20260831201352 69 175 0.0 0.0 0.00 0.00 0.00 92 1015.6
20260831200849 68 168 0.0 0.0 0.00 0.00 0.00 92 1015.9
20260831200343 68 178 0.0 0.0 0.00 0.00 0.00 94 1015.6
20260831195838 68 177 0.0 0.0 0.00 0.00 0.00 94 1015.7
20260831195334 69 180 0.0 0.0 0.00 0.00 0.00 93 1015.7
20260831194830 69 180 0.0 0.0 0.00 0.00 0.00 91 1016.0
20260831194325 69 195 0.0 0.0 0.00 0.00 0.00 90 1015.7
20260831193824 70 173 0.0 0.0 0.00 0.00 0.00 88 1015.7
20260831193319 70 179 0.0 0.0 0.00 0.00 0.00 87 1015.8
20260831192814 71 180 0.0 0.0 0.00 0.00 0.00 86 1015.6
20260831192309 71 179 0.0 0.0 0.00 0.00 0.00 85 1016.0
20260831191805 71 174 0.0 0.0 0.00 0.00 0.00 84 1015.8
20260831191301 72 180 0.0 0.0 0.00 0.00 0.00 84 1015.8
20260831190756 72 171 0.0 0.0 0.00 0.00 0.00 83 1016.0
20260831190250 72 185 0.0 0.0 0.00 0.00 0.00 83 1015.9
20260831185750 73 174 0.0 0.0 0.00 0.00 0.00 82 1015.9
20260831185246 73 200 0.9 1.7 0.00 0.00 0.00 80 1016.0
20260831184745 74 174 0.9 0.9 0.00 0.00 0.00 80 1016.2
20260831184241 74 192 0.0 0.0 0.00 0.00 0.00 82 1016.2
20260831183736 73 177 0.9 0.9 0.00 0.00 0.00 80 1016.4
20260831183236 73 194 0.9 0.9 0.00 0.00 0.00 81 1016.4
20260831182734 73 161 0.0 0.9 0.00 0.00 0.00 82 1016.6
20260831182230 73 141 0.0 0.0 0.00 0.00 0.00 84 1016.5
20260831181730 73 179 0.0 0.9 0.00 0.00 0.00 81 1016.4
20260831181226 72 183 0.0 0.0 0.00 0.00 0.00 82 1016.7
20260831180720 72 172 0.0 0.0 0.00 0.00 0.00 86 1016.5
20260831180220 71 183 0.0 0.0 0.00 0.00 0.00 85 1016.7
20260831175719 71 168 0.0 0.0 0.00 0.00 0.00 84 1016.3
20260831175217 71 183 0.0 0.0 0.00 0.00 0.00 83 1016.7
20260831174716 72 181 0.0 0.0 0.00 0.00 0.00 82 1016.7
20260831174212 72 158 0.0 0.0 0.00 0.00 0.00 83 1016.9
20260831173711 72 141 0.0 0.0 0.00 0.00 0.00 82 1016.8
20260831173206 72 176 0.9 0.9 0.00 0.00 0.00 84 1016.9
20260831172701 72 155 0.9 0.9 0.00 0.00 0.00 82 1016.7
20260831172156 71 182 0.0 0.0 0.00 0.00 0.00 85 1016.6
20260831171651 71 186 0.0 0.0 0.00 0.00 0.00 86 1016.9
20260831171149 70 184 0.0 0.0 0.00 0.00 0.00 87 1017.0
20260831170645 70 183 0.0 0.9 0.00 0.00 0.00 86 1017.0
20260831170141 70 174 0.0 0.0 0.00 0.00 0.00 88 1016.9
20260831165637 70 177 0.0 0.0 0.00 0.00 0.00 87 1016.7
20260831165133 70 172 0.0 0.0 0.00 0.00 0.00 88 1017.0
20260831164629 70 177 0.0 0.0 0.00 0.00 0.00 87 1017.0
20260831164124 71 177 0.0 0.0 0.00 0.00 0.00 86 1017.3
20260831163619 71 181 0.0 0.0 0.00 0.00 0.00 86 1017.4
20260831163115 71 178 0.0 0.0 0.00 0.00 0.00 85 1017.6
20260831162614 72 178 0.0 0.0 0.00 0.00 0.00 85 1017.4
20260831162112 72 167 0.0 0.9 0.00 0.00 0.00 83 1017.4
20260831161608 71 203 0.0 0.0 0.00 0.00 0.00 81 1017.5
20260831161104 72 177 0.0 0.0 0.00 0.00 0.00 80 1017.3
20260831160603 71 179 0.0 0.0 0.00 0.00 0.00 83 1017.5
20260831160059 71 152 0.9 1.7 0.00 0.00 0.00 81 1017.5
20260831155559 72 193 0.9 0.9 0.00 0.00 0.00 81 1017.5
20260831155054 72 187 0.9 0.9 0.00 0.00 0.00 81 1017.4
20260831154551 73 190 0.0 0.0 0.00 0.00 0.00 78 1017.8
20260831154050 73 185 0.0 0.9 0.00 0.00 0.00 80 1017.7
20260831153549 72 175 0.0 0.9 0.00 0.00 0.00 80 1017.5
20260831153047 73 172 0.9 0.9 0.00 0.00 0.00 78 1017.5
20260831152542 74 190 0.0 0.0 0.00 0.00 0.00 77 1017.4
20260831152037 73 201 0.0 0.0 0.00 0.00 0.00 77 1017.9
20260831151531 73 180 0.0 0.0 0.00 0.00 0.00 84 1017.5
20260831151031 71 177 0.0 0.0 0.00 0.00 0.00 84 1017.6
20260831150526 72 178 0.0 0.0 0.00 0.00 0.00 84 1017.7
20260831150023 73 182 0.0 0.0 0.00 0.00 0.00 80 1017.6
20260831145517 71 197 0.9 0.9 0.00 0.00 0.00 80 1017.8
20260831145013 71 181 0.0 0.0 0.00 0.00 0.00 84 1017.8
20260831144508 71 69 1.7 2.6 0.00 0.00 0.00 83 1017.7
20260831144003 70 190 0.9 0.9 0.00 0.00 0.00 82 1017.6
20260831143458 71 176 0.0 0.0 0.00 0.00 0.00 82 1017.7
20260831142954 70 185 0.0 0.0 0.00 0.00 0.00 85 1017.5
20260831142450 69 201 0.0 0.0 0.00 0.00 0.00 87 1018.0
20260831141944 68 175 0.0 0.9 0.00 0.00 0.00 87 1017.9
20260831141438 69 171 0.0 0.0 0.00 0.00 0.00 87 1017.7
20260831140933 69 171 0.0 0.0 0.00 0.00 0.00 85 1017.5
20260831140427 69 161 1.7 1.7 0.00 0.00 0.00 85 1017.7
20260831135926 69 166 0.0 0.0 0.00 0.00 0.00 86 1017.7
20260831135425 70 167 0.0 0.9 0.00 0.00 0.00 84 1017.7
20260831134921 69 178 0.0 0.0 0.00 0.00 0.00 85 1017.7
20260831134417 70 179 0.0 0.0 0.00 0.00 0.00 84 1017.6
20260831133917 71 159 0.0 0.9 0.00 0.00 0.00 82 1017.6
20260831133412 70 172 0.0 0.9 0.00 0.00 0.00 88 1017.5
20260831132907 69 173 0.9 1.7 0.00 0.00 0.00 87 1017.6
20260831132402 68 216 1.7 1.7 0.00 0.00 0.00 90 1017.6
20260831131902 67 172 0.0 0.0 0.00 0.00 0.00 91 1017.5
20260831131357 67 187 0.0 0.9 0.00 0.00 0.00 92 1017.8
20260831130853 67 176 0.0 0.0 0.00 0.00 0.00 93 1017.5
20260831130348 67 196 0.9 0.9 0.00 0.00 0.00 92 1017.5
20260831125847 68 176 0.9 1.7 0.00 0.00 0.00 92 1017.8
20260831125342 67 177 0.0 0.0 0.00 0.00 0.00 92 1017.7
20260831124837 67 195 0.0 0.0 0.00 0.00 0.00 91 1017.7
20260831124333 67 181 0.0 0.0 0.00 0.00 0.00 92 1017.8
20260831123833 67 181 0.0 0.0 0.00 0.00 0.00 92 1017.6
20260831123332 67 175 0.0 0.0 0.00 0.00 0.00 92 1017.6
20260831122827 66 177 0.0 0.0 0.00 0.00 0.00 95 1017.9
20260831122323 66 176 0.0 0.0 0.00 0.00 0.00 96 1017.8
20260831121822 65 203 0.0 0.0 0.00 0.00 0.00 98 1017.9
20260831121319 65 191 0.0 0.0 0.00 0.00 0.00 99 1017.9
20260831120814 64 179 0.0 0.0 0.00 0.00 0.00 99 1017.9
20260831120308 64 176 0.0 0.0 0.00 0.00 0.00 99 1017.7
20260831115803 64 177 0.0 0.0 0.00 0.00 0.00 99 1017.6
20260831115300 64 179 0.0 0.0 0.00 0.00 0.00 99 1017.7
20260831114758 63 184 0.0 0.0 0.00 0.00 0.00 99 1017.8
20260831114253 64 177 0.0 0.0 0.00 0.00 0.00 99 1017.8
20260831113748 63 184 0.0 0.0 0.00 0.00 0.00 99 1017.6
20260831113243 63 176 0.0 0.0 0.00 0.00 0.00 99 1017.4
20260831112742 63 181 0.0 0.0 0.00 0.00 0.00 99 1017.4
20260831112238 63 180 0.0 0.0 0.00 0.00 0.00 99 1017.4
20260831111733 63 184 0.0 0.0 0.00 0.00 0.00 99 1017.5
20260831111229 62 185 0.0 0.0 0.00 0.00 0.00 99 1017.5
20260831110724 62 180 0.0 0.0 0.00 0.00 0.00 99 1017.4
20260831110220 62 182 0.0 0.0 0.00 0.00 0.00 99 1017.3
20260831105718 62 183 0.0 0.0 0.00 0.00 0.00 99 1017.4
20260831105214 61 180 0.0 0.0 0.00 0.00 0.00 99 1017.3
20260831104709 61 183 0.0 0.0 0.00 0.00 0.00 99 1017.2
20260831104206 61 192 0.0 0.0 0.00 0.00 0.00 99 1017.2
20260831103705 61 182 0.0 0.0 0.00 0.00 0.00 99 1017.0
20260831103201 61 181 0.0 0.0 0.00 0.00 0.00 99 1016.9
20260831102700 61 175 0.0 0.0 0.00 0.00 0.00 99 1016.8
20260831102155 61 176 0.0 0.0 0.00 0.00 0.00 99 1016.9
20260831101651 60 177 0.0 0.0 0.00 0.00 0.00 99 1016.9
20260831101146 60 185 0.0 0.0 0.00 0.00 0.00 99 1016.9
20260831100642 60 178 0.0 0.0 0.00 0.00 0.00 99 1017.0
20260831100139 60 180 0.0 0.0 0.00 0.00 0.00 99 1017.1
20260831095636 60 178 0.0 0.0 0.00 0.00 0.00 99 1017.0
20260831095132 60 178 0.0 0.0 0.00 0.00 0.00 99 1016.9
20260831094627 60 181 0.0 0.0 0.00 0.00 0.00 99 1016.9
20260831094123 60 176 0.0 0.0 0.00 0.00 0.00 99 1016.6
20260831093618 61 182 0.0 0.0 0.00 0.00 0.00 99 1016.6
20260831093114 61 188 0.0 0.0 0.00 0.00 0.00 99 1016.6
20260831092610 61 184 0.0 0.0 0.00 0.00 0.00 99 1016.8
20260831092106 61 183 0.0 0.0 0.00 0.00 0.00 99 1016.7
20260831091605 60 177 0.0 0.0 0.00 0.00 0.00 99 1016.6
20260831091101 60 176 0.0 0.0 0.00 0.00 0.00 99 1016.8
20260831090556 60 176 0.0 0.0 0.00 0.00 0.00 99 1016.4
20260831090052 61 176 0.0 0.0 0.00 0.00 0.00 99 1016.5
20260831085547 61 176 0.0 0.0 0.00 0.00 0.00 99 1016.6
20260831085042 61 179 0.0 0.0 0.00 0.00 0.00 99 1016.5
20260831084538 61 186 0.0 0.0 0.00 0.00 0.00 99 1016.5
20260831084034 61 194 0.0 0.0 0.00 0.00 0.00 99 1016.7
20260831083530 61 214 0.9 0.9 0.00 0.00 0.00 99 1016.6
20260831083029 61 188 0.0 0.0 0.00 0.00 0.00 99 1016.6
20260831082524 61 181 0.0 0.0 0.00 0.00 0.00 99 1016.9
20260831082019 61 181 0.0 0.0 0.00 0.00 0.00 99 1016.9
20260831081515 61 181 0.0 0.0 0.00 0.00 0.00 99 1016.6
20260831081010 61 204 0.0 0.0 0.00 0.00 0.00 99 1016.7
20260831080504 61 180 0.0 0.0 0.00 0.00 0.00 99 1016.6
20260831080000 62 180 0.0 0.0 0.00 0.00 0.00 99 1016.7
20260831075455 62 181 0.0 0.0 0.00 0.00 0.00 99 1016.6
20260831074950 62 185 0.0 0.0 0.00 0.00 0.00 99 1016.6
20260831074445 62 176 0.0 0.0 0.00 0.00 0.00 99 1016.3
20260831073944 62 188 0.0 0.0 0.00 0.00 0.00 99 1016.4
20260831073439 62 193 0.0 0.0 0.00 0.00 0.00 99 1016.4
20260831072933 62 191 0.0 0.0 0.00 0.00 0.00 99 1016.3
20260831072429 62 192 0.0 0.0 0.00 0.00 0.00 99 1016.3
20260831071925 62 184 0.0 0.0 0.00 0.00 0.00 99 1016.4
20260831071424 62 210 0.0 0.0 0.00 0.00 0.00 99 1016.3
20260831070924 62 185 0.0 0.0 0.00 0.00 0.00 99 1016.4
20260831070424 63 178 0.0 0.0 0.00 0.00 0.00 99 1016.6
20260831065923 63 179 0.0 0.0 0.00 0.00 0.00 99 1016.2
20260831065420 63 179 0.0 0.0 0.00 0.00 0.00 99 1016.5
20260831064916 63 163 0.0 0.0 0.00 0.00 0.00 99 1016.2
20260831064411 63 182 0.0 0.0 0.00 0.00 0.00 99 1016.3
20260831063906 63 179 0.0 0.0 0.00 0.00 0.00 99 1016.3
20260831063401 64 184 0.0 0.0 0.00 0.00 0.00 99 1016.3
20260831062856 63 185 0.0 0.0 0.00 0.00 0.00 99 1016.6
20260831062351 63 179 0.0 0.0 0.00 0.00 0.00 99 1016.7
20260831061850 63 173 0.0 0.0 0.00 0.00 0.00 99 1016.6
20260831061349 63 185 0.0 0.0 0.00 0.00 0.00 99 1016.5
20260831060845 63 181 0.0 0.0 0.00 0.00 0.00 99 1016.6
20260831060340 63 182 0.0 0.0 0.00 0.00 0.00 99 1016.5
20260831055839 63 215 0.0 0.0 0.00 0.00 0.00 99 1016.5
20260831055335 63 184 0.0 0.9 0.00 0.00 0.00 99 1016.4
20260831054830 63 186 0.9 1.7 0.00 0.00 0.00 99 1016.4
20260831054325 63 186 0.0 0.9 0.00 0.00 0.00 99 1016.3
20260831053824 63 192 0.0 0.0 0.00 0.00 0.00 99 1016.1
20260831053323 63 187 0.9 0.9 0.00 0.00 0.00 99 1016.5
20260831052817 63 184 0.0 0.0 0.00 0.00 0.00 98 1016.1
20260831052316 63 214 0.9 0.9 0.00 0.00 0.00 98 1016.2
20260831051814 63 251 1.7 1.7 0.00 0.00 0.00 98 1016.2
20260831051314 64 199 0.9 0.9 0.00 0.00 0.00 98 1016.2
20260831050808 64 188 0.9 1.7 0.00 0.00 0.00 98 1016.1
20260831050302 64 245 0.0 0.0 0.00 0.00 0.00 98 1016.3
20260831045756 63 230 0.0 0.9 0.00 0.00 0.00 99 1016.6
20260831045251 63 179 1.7 1.7 0.00 0.00 0.00 99 1016.5
20260831044745 63 189 0.9 1.7 0.00 0.00 0.00 99 1016.3
20260831044240 63 185 0.0 0.0 0.00 0.00 0.00 99 1016.3
20260831043736 64 176 0.0 0.0 0.00 0.00 0.00 98 1016.2
20260831043231 64 189 0.9 0.9 0.00 0.00 0.00 98 1016.2
20260831042730 64 188 0.0 0.9 0.00 0.00 0.00 99 1016.2
20260831042225 64 183 0.0 0.0 0.00 0.00 0.00 99 1016.4
20260831041721 64 201 0.9 1.7 0.00 0.00 0.00 99 1016.4
20260831041220 63 235 0.9 1.7 0.00 0.00 0.00 99 1016.3
20260831040715 63 195 0.0 0.9 0.00 0.00 0.00 99 1016.5
20260831040214 63 184 0.0 0.0 0.00 0.00 0.00 99 1016.5
20260831035713 63 200 0.0 0.0 0.00 0.00 0.00 99 1016.6
20260831035207 63 222 0.0 0.0 0.00 0.00 0.00 99 1016.5
20260831034707 63 205 0.0 0.9 0.00 0.00 0.00 99 1016.4
20260831034203 63 177 0.0 0.0 0.00 0.00 0.00 99 1016.4
20260831033658 63 180 0.0 0.0 0.00 0.00 0.00 99 1016.4
20260831033157 63 189 0.0 0.0 0.00 0.00 0.00 99 1016.3
20260831032652 63 181 0.0 0.0 0.00 0.00 0.00 99 1016.5
20260831032148 62 182 0.0 0.0 0.00 0.00 0.00 99 1016.7
20260831031647 62 173 0.0 0.0 0.00 0.00 0.00 99 1016.7
20260831031147 62 181 0.0 0.0 0.00 0.00 0.00 99 1016.6
20260831030645 63 168 0.9 0.9 0.00 0.00 0.00 99 1016.5
20260831030144 63 167 0.0 0.0 0.00 0.00 0.00 99 1016.6
20260831025643 63 171 0.0 0.0 0.00 0.00 0.00 99 1016.6
20260831025138 63 181 0.0 0.0 0.00 0.00 0.00 99 1016.6
20260831024635 63 184 0.0 0.0 0.00 0.00 0.00 99 1016.5
20260831024134 63 184 0.0 0.0 0.00 0.00 0.00 99 1016.7
20260831023632 63 181 0.0 0.0 0.00 0.00 0.00 99 1016.5
20260831023132 63 183 0.0 0.0 0.00 0.00 0.00 99 1016.6
20260831022627 63 190 0.0 0.0 0.00 0.00 0.00 99 1016.3
20260831022122 63 291 0.0 1.7 0.00 0.00 0.00 99 1016.3
20260831021620 63 181 0.0 0.0 0.00 0.00 0.00 99 1016.0
20260831021116 63 216 0.0 0.0 0.00 0.00 0.00 99 1016.0
20260831020612 63 182 0.0 0.0 0.00 0.00 0.00 99 1016.1
20260831020107 63 190 0.0 0.0 0.00 0.00 0.00 99 1016.3
20260831015602 63 186 1.7 1.7 0.00 0.00 0.00 99 1016.1
20260831015057 63 227 0.9 1.7 0.00 0.00 0.00 99 1016.3
20260831014552 63 189 0.0 0.0 0.00 0.00 0.00 99 1016.3
20260831014047 63 193 0.0 0.0 0.00 0.00 0.00 98 1016.3
20260831013543 64 202 0.9 1.7 0.00 0.00 0.00 98 1016.5
20260831013037 64 192 0.0 0.9 0.00 0.00 0.00 98 1016.5
20260831012532 64 239 0.0 0.0 0.00 0.00 0.00 98 1016.6
20260831012027 64 188 0.0 0.0 0.00 0.00 0.00 98 1016.6
20260831011526 64 200 0.0 0.0 0.00 0.00 0.00 98 1016.5
20260831011022 64 200 0.0 0.0 0.00 0.00 0.00 98 1016.2
20260831010522 63 196 0.0 0.0 0.00 0.00 0.00 98 1016.5
20260831010019 63 190 0.0 0.0 0.00 0.00 0.00 98 1016.3
20260831005519 63 181 0.0 0.0 0.00 0.00 0.00 98 1016.4
20260831005018 63 178 0.0 0.0 0.00 0.00 0.00 98 1016.2
20260831004515 63 187 0.0 0.0 0.00 0.00 0.00 99 1016.3
20260831004010 63 181 0.0 0.0 0.00 0.00 0.00 99 1016.0
20260831003506 63 194 0.0 0.0 0.00 0.00 0.00 99 1016.0
20260831003002 63 177 0.0 0.0 0.00 0.00 0.00 99 1015.6
20260831002500 63 181 0.0 0.0 0.00 0.00 0.00 99 1015.7
20260831001955 63 192 0.0 0.0 0.00 0.00 0.00 99 1015.9
20260831001450 63 182 0.0 0.0 0.00 0.00 0.00 99 1015.4
20260831000948 63 181 0.0 0.0 0.00 0.00 0.00 99 1015.4
20260831000443 63 177 0.0 0.0 0.00 0.00 0.00 99 1015.2
20260830235941 63 181 0.0 0.0 0.00 0.00 0.00 99 1015.1
20260830235437 63 185 0.0 0.0 0.00 0.00 0.00 99 1015.2
20260830234932 63 181 0.0 0.0 0.00 0.00 0.00 99 1015.1
20260830234427 63 181 0.0 0.0 0.00 0.00 0.00 99 1014.9
20260830233923 63 180 0.0 0.0 0.00 0.00 0.00 99 1015.0
20260830233418 63 189 0.0 0.0 0.00 0.00 0.00 99 1015.0
20260830232914 63 185 0.0 0.0 0.00 0.00 0.00 98 1015.0
20260830232409 63 184 0.0 0.0 0.00 0.00 0.00 98 1015.0
20260830231906 63 187 0.0 0.9 0.00 0.00 0.00 98 1015.0
20260830231401 63 187 0.0 0.0 0.00 0.00 0.00 98 1014.9
20260830230900 63 190 0.0 0.0 0.00 0.00 0.00 97 1014.7
20260830230356 63 186 0.9 1.7 0.00 0.00 0.00 97 1014.7
20260830225855 63 197 0.0 0.9 0.00 0.00 0.00 97 1014.7
20260830225350 63 198 0.0 0.9 0.00 0.00 0.00 97 1014.9
20260830224845 64 181 0.9 0.9 0.00 0.00 0.00 97 1014.9
20260830224339 63 218 0.0 0.9 0.00 0.00 0.00 97 1015.0
20260830223836 63 186 0.9 0.9 0.00 0.00 0.00 97 1015.1
20260830223332 63 237 1.7 1.7 0.00 0.00 0.00 96 1015.1
20260830222831 64 222 1.7 1.7 0.00 0.00 0.00 96 1015.2
20260830222326 64 294 2.6 4.3 0.00 0.00 0.00 95 1015.4
20260830221821 64 202 1.7 1.7 0.00 0.00 0.00 95 1015.5
20260830221319 65 233 1.7 1.7 0.00 0.00 0.00 95 1015.5
20260830220818 66 206 2.6 2.6 0.00 0.00 0.00 93 1015.6
20260830220318 66 224 0.9 0.9 0.00 0.00 0.00 91 1015.3
20260830215816 67 222 1.7 1.7 0.00 0.00 0.00 88 1015.2
20260830215311 68 202 0.9 0.9 0.00 0.00 0.00 86 1015.3
20260830214806 68 264 1.7 1.7 0.00 0.00 0.00 84 1015.0
20260830214301 69 261 1.7 1.7 0.00 0.00 0.00 82 1015.2
20260830213800 69 242 0.9 1.7 0.00 0.00 0.00 80 1015.0
20260830213255 70 188 1.7 1.7 0.00 0.00 0.00 79 1015.0
20260830212751 70 286 1.7 2.6 0.00 0.00 0.00 79 1014.9
20260830212247 70 211 0.9 1.7 0.00 0.00 0.00 79 1014.7
20260830211746 70 185 0.9 1.7 0.00 0.00 0.00 79 1014.8
20260830211245 70 197 0.9 1.7 0.00 0.00 0.00 79 1014.3
20260830210742 70 194 0.9 1.7 0.00 0.00 0.00 80 1014.3
20260830210241 70 173 0.0 0.0 0.00 0.00 0.00 81 1014.8
20260830205738 70 200 0.9 0.9 0.00 0.00 0.00 81 1014.8
20260830205233 70 177 0.0 0.0 0.00 0.00 0.00 82 1014.3
20260830204728 70 195 0.0 0.9 0.00 0.00 0.00 82 1014.7
20260830204227 70 183 0.0 0.0 0.00 0.00 0.00 84 1014.3